Simultaneous Nadir Overpasses (SNOs) Predictions

Prediction of SNOs between METOP-C and LANDSAT-8 Satellite Orbit:

Table of predicted SNOs for the next 14.0 days since TLE Epoch: 11/19/2022
Index Date (METOP-C) Time (METOP-C) Lat,Lon (METOP-C) SZA (METOP-C ) Date (LANDSAT-8) Time (LANDSAT-8) Lat,Lon (LANDSAT-8) SZA (LANDSAT-8 ) Distance(km) Time Diff (sec)
1 11/21/2022 06:48:01 81.10, 117.47 103.28 11/21/2022 06:48:43 81.09, 117.31 103.27 2.83 42
2 11/21/2022 07:38:41 -81.12, -74.60 76.64 11/21/2022 07:38:09 -81.11, -74.76 76.68 2.89 32
3 11/24/2022 02:22:23 81.10,-176.16 103.85 11/24/2022 02:22:58 81.10,-176.15 103.86 0.17 35
4 11/24/2022 03:13:03 -81.12, -8.27 76.08 11/24/2022 03:12:24 -81.12, -8.20 76.09 1.21 39
5 11/26/2022 21:56:46 81.10,-109.84 104.36 11/26/2022 21:57:14 81.10,-109.69 104.39 2.71 28
6 11/26/2022 22:47:25 -81.13, 58.39 75.53 11/26/2022 22:46:40 -81.13, 58.29 75.56 1.71 45
7 11/29/2022 17:31:08 81.11, -43.18 104.86 11/29/2022 17:31:30 81.10, -43.28 104.85 1.83 22
8 11/29/2022 18:21:48 -81.12, 124.62 75.08 11/29/2022 18:20:56 -81.12, 124.71 75.10 1.58 52
9 12/02/2022 13:05:30 81.10, 23.06 105.24 12/02/2022 13:05:45 81.09, 23.05 105.25 0.57 15



Historial Predications of SNOs between METOP-C and LANDSAT-8
